DW5091 Weather Reports


Display with metric or nautical units.
time (UTC)temp
F
wind
direction
speed
MPH
gust
MPH
rain 1hr
in
rain 24hr
in
rain mn
in
humidity
%
barometer
mb
20260508023604 48 129 0.0 1.0 0.00 0.00 0.00 88 1015.9
20260508023103 48 129 0.0 0.0 0.00 0.00 0.00 88 1016.0
20260508022603 48 129 0.0 0.0 0.00 0.00 0.00 88 1016.0
20260508022104 48 129 0.0 1.0 0.00 0.00 0.00 88 1016.1
20260508021603 48 129 0.0 1.0 0.00 0.00 0.00 88 1016.1
20260508020103 48 129 0.0 1.0 0.00 0.00 0.00 87 1016.2
20260508015603 48 129 0.0 0.0 0.00 0.00 0.00 87 1016.2
20260508014603 48 129 0.0 1.0 0.00 0.00 0.00 87 1016.2
20260508013603 48 129 0.0 1.0 0.00 0.00 0.00 86 1016.2
20260508012603 48 129 0.0 0.0 0.00 0.00 0.00 85 1016.1
20260508011103 49 129 0.0 0.0 0.00 0.00 0.00 85 1016.1
20260508010603 49 129 0.0 0.0 0.00 0.00 0.00 85 1016.2
20260508005604 49 79 0.0 0.0 0.00 0.00 0.00 84 1016.3
20260508005103 49 318 0.0 0.0 0.00 0.00 0.00 84 1016.2
20260508004603 49 318 0.0 0.0 0.00 0.00 0.00 84 1016.2
20260508004103 49 318 0.0 0.0 0.00 0.00 0.00 83 1016.2
20260508003603 49 318 0.0 0.0 0.00 0.00 0.00 83 1016.2
20260508002603 49 314 0.0 0.0 0.00 0.00 0.00 83 1016.3
20260508001604 49 314 0.0 0.0 0.00 0.00 0.00 83 1016.3
20260508001103 49 314 0.0 0.0 0.00 0.00 0.00 82 1016.3
20260507235104 50 124 0.0 1.0 0.00 0.00 0.00 82 1016.4
20260507234603 50 124 0.0 0.0 0.00 0.00 0.00 82 1016.4
20260507233604 50 131 0.0 3.0 0.00 0.00 0.00 82 1016.5
20260507232603 50 105 0.0 3.0 0.00 0.00 0.00 81 1016.5
20260507232105 50 127 0.0 2.0 0.00 0.00 0.00 80 1016.6
20260507231105 50 125 1.0 2.0 0.00 0.00 0.00 80 1016.5
20260507230603 50 124 0.0 3.0 0.00 0.00 0.00 80 1016.5
20260507230104 50 113 1.0 3.0 0.00 0.00 0.00 79 1016.5
20260507225604 50 137 1.0 3.0 0.00 0.00 0.00 78 1016.6
20260507224103 50 117 0.0 2.0 0.00 0.00 0.00 77 1016.7
20260507223103 50 111 1.0 3.0 0.00 0.00 0.00 76 1016.7
20260507222102 50 147 0.0 1.0 0.00 0.00 0.00 76 1016.6
20260507220603 50 125 0.0 1.0 0.00 0.00 0.00 75 1016.7
20260507214103 51 115 0.0 1.0 0.00 0.00 0.00 74 1016.7
20260507213603 51 114 0.0 0.0 0.00 0.00 0.00 74 1016.7
20260507211603 51 114 0.0 0.0 0.00 0.00 0.00 72 1016.7
20260507211103 51 114 0.0 1.0 0.00 0.00 0.00 72 1016.7
20260507205103 52 115 0.0 1.0 0.00 0.00 0.00 70 1016.4
20260507203604 53 115 0.0 1.0 0.00 0.00 0.00 69 1016.3
20260507203103 53 115 0.0 0.0 0.00 0.00 0.00 68 1016.3
20260507202603 53 115 0.0 0.0 0.00 0.00 0.00 67 1016.2
20260507202104 53 115 0.0 0.0 0.00 0.00 0.00 67 1016.1
20260507195103 54 109 0.0 1.0 0.00 0.00 0.00 64 1015.9
20260507194103 54 140 0.0 1.0 0.00 0.00 0.00 64 1015.8
20260507193603 54 128 0.0 1.0 0.00 0.00 0.00 64 1015.8
20260507193103 54 123 0.0 1.0 0.00 0.00 0.00 64 1015.7
20260507192603 54 130 0.0 2.0 0.00 0.00 0.00 64 1015.7
20260507191603 55 119 1.0 2.0 0.00 0.00 0.00 63 1015.7
20260507190603 55 127 1.0 3.0 0.00 0.00 0.00 62 1015.6
20260507185604 55 119 1.0 2.0 0.00 0.00 0.00 61 1015.6
20260507184603 55 123 1.0 2.0 0.00 0.00 0.00 61 1015.6
20260507183104 56 130 1.0 3.0 0.00 0.00 0.00 60 1015.5
20260507181603 56 128 1.0 3.0 0.00 0.00 0.00 61 1015.5
20260507180603 56 129 1.0 3.0 0.00 0.00 0.00 60 1015.5
20260507173603 57 128 1.0 5.0 0.00 0.00 0.00 61 1015.4
20260507172603 57 131 2.0 3.0 0.00 0.00 0.00 62 1015.4
20260507171603 57 134 1.0 3.0 0.00 0.00 0.00 63 1015.4
20260507171103 57 146 0.0 2.0 0.00 0.00 0.00 64 1015.4
20260507170604 57 126 1.0 3.0 0.00 0.00 0.00 63 1015.4
20260507165603 57 123 1.0 3.0 0.00 0.00 0.00 63 1015.4
20260507164103 57 123 0.0 3.0 0.00 0.00 0.00 63 1015.3
20260507162603 57 128 2.0 3.0 0.00 0.00 0.00 63 1015.3
20260507161603 57 122 2.0 3.0 0.00 0.00 0.00 63 1015.4
20260507153103 58 130 1.0 3.0 0.00 0.00 0.00 66 1015.5
20260507152603 58 124 1.0 3.0 0.00 0.00 0.00 66 1015.5
20260507151103 58 123 2.0 3.0 0.00 0.00 0.00 66 1015.6
20260507150603 58 128 1.0 3.0 0.00 0.00 0.00 67 1015.7
20260507145104 57 130 0.0 3.0 0.00 0.00 0.00 62 1015.8
20260507144603 58 131 0.0 2.0 0.00 0.00 0.00 62 1015.8
20260507143103 58 124 1.0 2.0 0.00 0.00 0.00 61 1016.0
20260507141603 58 132 2.0 3.0 0.00 0.00 0.00 60 1016.0
20260507141104 58 128 2.0 7.0 0.00 0.00 0.00 61 1016.0
20260507135604 58 126 2.0 6.0 0.00 0.00 0.00 62 1016.1
20260507134104 58 123 3.0 5.0 0.00 0.00 0.00 63 1016.1
20260507131603 58 127 3.0 9.0 0.00 0.00 0.00 63 1016.2
20260507131103 58 133 2.0 6.0 0.00 0.00 0.00 65 1016.2
20260507123603 57 130 6.0 9.0 0.00 0.00 0.00 62 1016.4
20260507122603 58 136 4.0 8.0 0.00 0.00 0.00 62 1016.4
20260507122103 58 149 3.0 10.0 0.00 0.00 0.00 61 1016.4
20260507121103 58 135 3.0 12.0 0.00 0.00 0.00 63 1016.4
20260507120603 58 133 4.0 8.0 0.00 0.00 0.00 62 1016.3
20260507114603 58 133 2.0 6.0 0.00 0.00 0.00 60 1016.4
20260507113103 59 141 2.0 6.0 0.00 0.00 0.00 58 1016.4
20260507112603 59 118 2.0 7.0 0.00 0.00 0.00 57 1016.3
20260507112103 59 124 2.0 6.0 0.00 0.00 0.00 56 1016.3
20260507110603 59 141 5.0 12.0 0.00 0.00 0.00 54 1016.4
20260507103104 59 117 3.0 6.0 0.00 0.00 0.00 63 1016.5
20260507102604 60 133 2.0 6.0 0.00 0.00 0.00 63 1016.5
20260507101604 57 119 3.0 7.0 0.00 0.00 0.00 68 1016.6
20260507100603 57 125 1.0 5.0 0.00 0.00 0.00 72 1016.7
20260507100103 57 126 2.0 3.0 0.00 0.00 0.00 73 1016.7
20260507095603 56 118 2.0 5.0 0.00 0.00 0.00 75 1016.7
20260507095105 56 143 2.0 5.0 0.00 0.00 0.00 74 1016.6
20260507093104 56 109 3.0 6.0 0.00 0.00 0.00 73 1016.8
20260507092603 56 128 1.0 6.0 0.00 0.00 0.00 73 1016.7
20260507092103 55 149 3.0 5.0 0.00 0.00 0.00 74 1016.7
20260507091605 56 144 2.0 7.0 0.00 0.00 0.00 72 1016.8
20260507084103 54 134 1.0 3.0 0.00 0.00 0.00 79 1016.8
20260507083603 54 133 2.0 5.0 0.00 0.00 0.00 78 1016.8
20260507082103 52 135 1.0 2.0 0.00 0.00 0.00 81 1016.8
20260507081103 51 128 1.0 3.0 0.00 0.00 0.00 83 1016.8
20260507073103 47 121 1.0 3.0 0.00 0.00 0.00 87 1016.7
20260507072603 47 135 1.0 2.0 0.00 0.00 0.00 87 1016.7
20260507072103 47 127 1.0 2.0 0.00 0.00 0.00 88 1016.7
20260507071604 47 139 1.0 2.0 0.00 0.00 0.00 88 1016.7
20260507070603 46 118 1.0 2.0 0.00 0.00 0.00 88 1016.7
20260507065103 46 111 0.0 1.0 0.00 0.00 0.00 90 1016.6
20260507064603 45 77 0.0 1.0 0.00 0.00 0.00 90 1016.6
20260507064103 45 76 0.0 1.0 0.00 0.00 0.00 91 1016.6
20260507063603 45 75 0.0 0.0 0.00 0.00 0.00 91 1016.7
20260507063103 44 75 0.0 1.0 0.00 0.00 0.00 91 1016.6
20260507061103 44 142 1.0 3.0 0.00 0.00 0.00 91 1016.5
20260507053104 43 129 0.0 1.0 0.00 0.00 0.00 90 1016.1
20260507051603 43 112 0.0 1.0 0.00 0.00 0.00 90 1016.1
20260507050103 43 110 0.0 1.0 0.00 0.00 0.00 90 1016.1
20260507045603 43 110 0.0 1.0 0.00 0.00 0.00 90 1016.2
20260507044604 43 110 0.0 1.0 0.00 0.00 0.00 89 1016.0
20260507043604 43 131 0.0 1.0 0.00 0.00 0.00 89 1016.0
20260507042102 43 107 0.0 2.0 0.00 0.00 0.00 89 1016.0
20260507041103 43 117 0.0 1.0 0.00 0.00 0.00 89 1015.9
20260507040103 43 126 0.0 1.0 0.00 0.00 0.00 89 1016.0
20260507035603 43 105 0.0 1.0 0.00 0.00 0.00 89 1016.0
20260507035103 43 106 0.0 1.0 0.00 0.00 0.00 89 1015.9
20260507034602 43 105 0.0 0.0 0.00 0.00 0.00 89 1016.0
20260507033103 43 105 0.0 0.0 0.00 0.00 0.00 89 1016.0
20260507032604 43 105 0.0 0.0 0.00 0.00 0.00 89 1016.0
20260507032103 43 105 0.0 1.0 0.00 0.00 0.00 89 1016.0
20260507031103 43 105 0.0 1.0 0.00 0.00 0.00 89 1016.0
20260507030603 43 105 0.0 1.0 0.00 0.00 0.00 89 1015.9
20260507025603 43 105 0.0 1.0 0.00 0.00 0.00 88 1016.0